Time,TemperatureF,DewpointF,PressureIn,WindDirection,WindDirectionDegrees,WindSpeedMPH,WindSpeedGustMPH,Humidity,HourlyPrecipIn,Conditions,Clouds,dailyrainin,SoftwareType,DateUTC
2013-06-12 00:00:00,53.0,52.2,29.28,North,355,1.0,3.0,97,0.00,,,1.10,Wunderground v.1.15,2013-06-12 04:00:00,
2013-06-12 00:05:00,53.0,52.2,29.28,North,355,2.0,3.0,97,0.00,,,0.00,Wunderground v.1.15,2013-06-12 04:05:00,
2013-06-12 00:15:00,52.9,52.1,29.28,North,355,2.0,3.0,97,0.00,,,0.00,Wunderground v.1.15,2013-06-12 04:15:00,
2013-06-12 00:20:00,52.9,52.1,29.28,North,355,2.0,2.0,97,0.00,,,0.00,Wunderground v.1.15,2013-06-12 04:20:00,
2013-06-12 00:30:00,52.8,52.0,29.28,North,355,1.0,2.0,97,0.00,,,0.00,Wunderground v.1.15,2013-06-12 04:30:00,
2013-06-12 00:35:00,52.8,52.0,29.28,North,355,2.0,3.0,97,0.00,,,0.00,Wunderground v.1.15,2013-06-12 04:35:00,
2013-06-12 00:40:00,52.8,52.0,29.28,NNE,19,2.0,2.0,97,0.00,,,0.00,Wunderground v.1.15,2013-06-12 04:40:00,
2013-06-12 00:50:00,52.8,52.0,29.28,NNE,15,2.0,2.0,97,0.00,,,0.00,Wunderground v.1.15,2013-06-12 04:50:00,
2013-06-12 00:55:00,52.7,51.9,29.28,NW,325,2.0,2.0,97,0.00,,,0.00,Wunderground v.1.15,2013-06-12 04:55:00,
2013-06-12 01:05:00,52.7,51.9,29.28,NNE,21,2.0,3.0,97,0.00,,,0.00,Wunderground v.1.15,2013-06-12 05:05:00,
2013-06-12 01:10:00,52.7,51.9,29.28,North,355,2.0,2.0,97,0.00,,,0.00,Wunderground v.1.15,2013-06-12 05:10:00,
2013-06-12 01:15:00,52.7,51.9,29.28,North,360,2.0,2.0,97,0.00,,,0.01,Wunderground v.1.15,2013-06-12 05:15:00,
2013-06-12 01:20:00,52.7,51.9,29.28,NE,41,2.0,2.0,97,0.00,,,0.01,Wunderground v.1.15,2013-06-12 05:20:00,
2013-06-12 01:25:00,52.7,51.9,29.28,NNE,17,2.0,3.0,97,0.00,,,0.01,Wunderground v.1.15,2013-06-12 05:25:00,
2013-06-12 01:30:00,52.6,51.8,29.28,NNW,348,3.0,3.0,97,0.00,,,0.01,Wunderground v.1.15,2013-06-12 05:30:00,
2013-06-12 01:35:00,52.6,51.8,29.28,NNE,26,2.0,4.0,97,0.00,,,0.01,Wunderground v.1.15,2013-06-12 05:35:00,
2013-06-12 01:40:00,52.6,51.8,29.28,NNE,17,2.0,3.0,97,0.00,,,0.01,Wunderground v.1.15,2013-06-12 05:40:00,
2013-06-12 01:50:00,52.6,51.8,29.28,North,5,3.0,3.0,97,0.00,,,0.01,Wunderground v.1.15,2013-06-12 05:50:00,
2013-06-12 01:55:00,52.5,51.7,29.28,NNE,18,3.0,3.0,97,0.00,,,0.01,Wunderground v.1.15,2013-06-12 05:55:00,
2013-06-12 02:00:00,52.4,51.6,29.28,NNE,22,3.0,3.0,97,0.00,,,0.01,Wunderground v.1.15,2013-06-12 06:00:00,
2013-06-12 02:05:00,52.4,51.6,29.28,NE,40,3.0,3.0,97,0.00,,,0.01,Wunderground v.1.15,2013-06-12 06:05:00,
2013-06-12 02:10:00,52.3,51.5,29.28,North,5,3.0,5.0,97,0.00,,,0.01,Wunderground v.1.15,2013-06-12 06:10:00,
2013-06-12 02:20:00,52.2,51.4,29.28,North,5,4.0,4.0,97,0.00,,,0.01,Wunderground v.1.15,2013-06-12 06:20:00,
2013-06-12 02:30:00,52.1,51.3,29.28,North,5,3.0,3.0,97,0.00,,,0.01,Wunderground v.1.15,2013-06-12 06:30:00,
2013-06-12 02:40:00,52.0,51.2,29.28,NNE,19,4.0,4.0,97,0.00,,,0.01,Wunderground v.1.15,2013-06-12 06:40:00,
2013-06-12 02:50:00,52.0,51.2,29.28,North,11,3.0,3.0,97,0.00,,,0.01,Wunderground v.1.15,2013-06-12 06:50:00,
2013-06-12 02:55:00,51.9,51.1,29.28,NNW,346,2.0,3.0,97,0.00,,,0.01,Wunderground v.1.15,2013-06-12 06:55:00,
2013-06-12 03:00:00,51.9,51.1,29.28,NW,315,1.0,2.0,97,0.00,,,0.01,Wunderground v.1.15,2013-06-12 07:00:00,
2013-06-12 03:10:00,51.9,51.1,29.27,NW,323,2.0,2.0,97,0.00,,,0.01,Wunderground v.1.15,2013-06-12 07:10:00,
2013-06-12 03:15:00,51.9,51.1,29.28,NNW,328,3.0,3.0,97,0.00,,,0.01,Wunderground v.1.15,2013-06-12 07:15:00,
2013-06-12 03:20:00,51.9,51.1,29.28,NNW,337,3.0,6.0,97,0.00,,,0.01,Wunderground v.1.15,2013-06-12 07:20:00,
2013-06-12 03:25:00,51.8,51.0,29.28,NNW,334,3.0,6.0,97,0.00,,,0.01,Wunderground v.1.15,2013-06-12 07:25:00,
2013-06-12 03:35:00,51.6,50.5,29.28,NNE,19,4.0,8.0,96,0.00,,,0.01,Wunderground v.1.15,2013-06-12 07:35:00,
2013-06-12 03:40:00,51.5,50.4,29.28,NNW,338,5.0,5.0,96,0.00,,,0.01,Wunderground v.1.15,2013-06-12 07:40:00,
2013-06-12 03:50:00,51.4,50.3,29.28,NNW,338,4.0,4.0,96,0.00,,,0.01,Wunderground v.1.15,2013-06-12 07:50:00,
2013-06-12 03:55:00,51.4,50.3,29.28,NNE,20,4.0,4.0,96,0.00,,,0.01,Wunderground v.1.15,2013-06-12 07:55:00,
2013-06-12 04:00:00,51.4,50.3,29.28,North,355,3.0,3.0,96,0.00,,,0.01,Wunderground v.1.15,2013-06-12 08:00:00,
2013-06-12 04:05:00,51.3,50.2,29.28,NNW,334,4.0,6.0,96,0.00,,,0.01,Wunderground v.1.15,2013-06-12 08:05:00,
2013-06-12 04:15:00,51.4,50.3,29.28,North,11,4.0,4.0,96,0.00,,,0.01,Wunderground v.1.15,2013-06-12 08:15:00,
2013-06-12 04:20:00,51.4,50.0,29.28,North,5,3.0,5.0,95,0.00,,,0.01,Wunderground v.1.15,2013-06-12 08:20:00,
2013-06-12 04:30:00,51.3,49.9,29.28,NNW,346,3.0,3.0,95,0.00,,,0.01,Wunderground v.1.15,2013-06-12 08:30:00,
2013-06-12 04:35:00,51.3,49.9,29.28,NNW,340,3.0,3.0,95,0.00,,,0.01,Wunderground v.1.15,2013-06-12 08:35:00,
2013-06-12 04:40:00,51.3,49.9,29.28,NNW,344,3.0,3.0,95,0.00,,,0.01,Wunderground v.1.15,2013-06-12 08:40:00,
2013-06-12 04:45:00,51.3,49.9,29.28,North,350,3.0,5.0,95,0.00,,,0.01,Wunderground v.1.15,2013-06-12 08:45:00,
2013-06-12 04:50:00,51.4,50.0,29.28,NNW,342,3.0,3.0,95,0.00,,,0.01,Wunderground v.1.15,2013-06-12 08:50:00,
2013-06-12 05:00:00,51.4,50.3,29.29,NNE,13,2.0,3.0,96,0.00,,,0.01,Wunderground v.1.15,2013-06-12 09:00:00,
2013-06-12 05:10:00,51.5,50.4,29.29,North,360,3.0,3.0,96,0.00,,,0.02,Wunderground v.1.15,2013-06-12 09:10:00,
2013-06-12 05:15:00,51.6,50.5,29.30,NNW,335,3.0,5.0,96,0.00,,,0.02,Wunderground v.1.15,2013-06-12 09:15:00,
2013-06-12 05:20:00,51.7,50.3,29.30,North,5,3.0,3.0,95,0.00,,,0.02,Wunderground v.1.15,2013-06-12 09:20:00,
2013-06-12 05:25:00,51.7,50.3,29.30,NNE,30,4.0,4.0,95,0.00,,,0.02,Wunderground v.1.15,2013-06-12 09:25:00,
2013-06-12 05:35:00,51.7,50.3,29.31,NNW,333,3.0,3.0,95,0.00,,,0.02,Wunderground v.1.15,2013-06-12 09:35:00,
2013-06-12 05:40:00,51.7,50.3,29.31,NNW,339,4.0,6.0,95,0.00,,,0.02,Wunderground v.1.15,2013-06-12 09:40:00,
2013-06-12 05:45:00,51.7,50.3,29.31,NNE,18,3.0,6.0,95,0.00,,,0.02,Wunderground v.1.15,2013-06-12 09:45:00,
2013-06-12 06:00:00,51.6,50.5,29.31,NE,45,4.0,9.0,96,0.00,,,0.02,Wunderground v.1.15,2013-06-12 10:00:00,
2013-06-12 06:05:00,51.6,50.5,29.31,NW,315,5.0,9.0,96,0.00,,,0.02,Wunderground v.1.15,2013-06-12 10:05:00,
2013-06-12 06:10:00,51.6,50.5,29.31,NNE,17,5.0,8.0,96,0.00,,,0.02,Wunderground v.1.15,2013-06-12 10:10:00,
2013-06-12 06:20:00,51.7,50.6,29.32,North,5,4.0,4.0,96,0.00,,,0.02,Wunderground v.1.15,2013-06-12 10:20:00,
2013-06-12 06:30:00,51.8,50.4,29.32,NNW,333,4.0,4.0,95,0.00,,,0.02,Wunderground v.1.15,2013-06-12 10:30:00,
2013-06-12 06:35:00,51.9,50.5,29.32,NW,310,4.0,7.0,95,0.00,,,0.02,Wunderground v.1.15,2013-06-12 10:35:00,
2013-06-12 06:40:00,52.0,50.6,29.32,North,360,3.0,7.0,95,0.00,,,0.02,Wunderground v.1.15,2013-06-12 10:40:00,
2013-06-12 06:45:00,52.0,50.6,29.32,NW,313,5.0,7.0,95,0.00,,,0.02,Wunderground v.1.15,2013-06-12 10:45:00,
2013-06-12 06:55:00,52.2,50.8,29.33,NNW,331,5.0,6.0,95,0.00,,,0.02,Wunderground v.1.15,2013-06-12 10:55:00,
2013-06-12 07:00:00,52.3,50.9,29.33,NNW,345,5.0,5.0,95,0.00,,,0.02,Wunderground v.1.15,2013-06-12 11:00:00,
2013-06-12 07:05:00,52.4,51.0,29.33,NE,38,5.0,5.0,95,0.00,,,0.02,Wunderground v.1.15,2013-06-12 11:05:00,
2013-06-12 07:15:00,52.6,50.9,29.33,North,5,7.0,7.0,94,0.00,,,0.02,Wunderground v.1.15,2013-06-12 11:15:00,
2013-06-12 07:20:00,52.6,50.9,29.33,NNW,329,7.0,7.0,94,0.00,,,0.02,Wunderground v.1.15,2013-06-12 11:20:00,
2013-06-12 07:30:00,52.7,50.7,29.33,NNW,340,7.0,7.0,93,0.00,,,0.02,Wunderground v.1.15,2013-06-12 11:30:00,
2013-06-12 07:40:00,52.8,50.8,29.33,NNE,31,6.0,6.0,93,0.00,,,0.02,Wunderground v.1.15,2013-06-12 11:40:00,
2013-06-12 07:50:00,52.8,51.1,29.34,NNE,22,5.0,5.0,94,0.00,,,0.02,Wunderground v.1.15,2013-06-12 11:50:00,
2013-06-12 08:00:00,52.8,51.1,29.34,NNW,339,4.0,4.0,94,0.00,,,0.02,Wunderground v.1.15,2013-06-12 12:00:00,
2013-06-12 08:05:00,52.8,51.1,29.34,NNE,12,5.0,8.0,94,0.00,,,0.02,Wunderground v.1.15,2013-06-12 12:05:00,
2013-06-12 08:10:00,52.9,50.9,29.34,NNE,33,6.0,7.0,93,0.00,,,0.02,Wunderground v.1.15,2013-06-12 12:10:00,
2013-06-12 08:15:00,53.0,51.0,29.35,NNW,344,7.0,7.0,93,0.00,,,0.02,Wunderground v.1.15,2013-06-12 12:15:00,
2013-06-12 08:20:00,53.2,51.2,29.35,NW,312,6.0,9.0,93,0.00,,,0.02,Wunderground v.1.15,2013-06-12 12:20:00,
2013-06-12 08:30:00,53.3,50.7,29.35,North,11,6.0,8.0,91,0.00,,,0.02,Wunderground v.1.15,2013-06-12 12:30:00,
2013-06-12 08:40:00,53.4,50.8,29.35,NNW,329,8.0,8.0,91,0.00,,,0.02,Wunderground v.1.15,2013-06-12 12:40:00,
2013-06-12 08:45:00,53.4,50.8,29.35,NNE,16,8.0,10.0,91,0.00,,,0.02,Wunderground v.1.15,2013-06-12 12:45:00,
2013-06-12 08:50:00,53.4,50.8,29.35,NE,37,7.0,8.0,91,0.00,,,0.02,Wunderground v.1.15,2013-06-12 12:50:00,
2013-06-12 08:55:00,53.3,50.7,29.35,NW,323,7.0,8.0,91,0.00,,,0.02,Wunderground v.1.15,2013-06-12 12:55:00,
2013-06-12 09:00:00,53.4,50.8,29.35,NE,35,8.0,8.0,91,0.00,,,0.02,Wunderground v.1.15,2013-06-12 13:00:00,
2013-06-12 09:10:00,53.8,50.9,29.35,NNW,348,8.0,8.0,90,0.00,,,0.02,Wunderground v.1.15,2013-06-12 13:10:00,
2013-06-12 09:15:00,54.1,51.5,29.36,North,360,7.0,8.0,91,0.00,,,0.02,Wunderground v.1.15,2013-06-12 13:15:00,
2013-06-12 09:20:00,54.2,51.3,29.36,NE,36,7.0,7.0,90,0.00,,,0.02,Wunderground v.1.15,2013-06-12 13:20:00,
2013-06-12 09:30:00,54.3,51.1,29.36,NNE,28,8.0,10.0,89,0.00,,,0.02,Wunderground v.1.15,2013-06-12 13:30:00,
2013-06-12 09:35:00,54.4,51.5,29.36,North,5,8.0,10.0,90,0.00,,,0.02,Wunderground v.1.15,2013-06-12 13:35:00,
2013-06-12 09:40:00,54.5,51.3,29.36,North,355,7.0,9.0,89,0.00,,,0.02,Wunderground v.1.15,2013-06-12 13:40:00,
2013-06-12 09:45:00,54.5,51.3,29.36,NW,321,7.0,9.0,89,0.00,,,0.02,Wunderground v.1.15,2013-06-12 13:45:00,
2013-06-12 09:50:00,54.5,51.0,29.37,NNW,343,8.0,8.0,88,0.00,,,0.02,Wunderground v.1.15,2013-06-12 13:50:00,
2013-06-12 10:00:00,54.7,51.2,29.37,NNE,15,9.0,9.0,88,0.00,,,0.02,Wunderground v.1.15,2013-06-12 14:00:00,
2013-06-12 10:05:00,54.9,51.4,29.37,NNE,16,10.0,13.0,88,0.00,,,0.02,Wunderground v.1.15,2013-06-12 14:05:00,
2013-06-12 10:10:00,55.0,51.5,29.37,NNW,342,10.0,10.0,88,0.00,,,0.02,Wunderground v.1.15,2013-06-12 14:10:00,
2013-06-12 10:15:00,55.3,51.8,29.37,NE,34,9.0,10.0,88,0.00,,,0.02,Wunderground v.1.15,2013-06-12 14:15:00,
2013-06-12 10:20:00,55.6,52.1,29.37,East,84,9.0,9.0,88,0.00,,,0.02,Wunderground v.1.15,2013-06-12 14:20:00,
2013-06-12 10:25:00,55.7,51.9,29.37,NW,312,8.0,10.0,87,0.00,,,0.02,Wunderground v.1.15,2013-06-12 14:25:00,
2013-06-12 10:30:00,55.8,52.0,29.38,North,5,8.0,9.0,87,0.00,,,0.02,Wunderground v.1.15,2013-06-12 14:30:00,
2013-06-12 10:35:00,55.8,51.7,29.38,NNW,344,8.0,9.0,86,0.00,,,0.02,Wunderground v.1.15,2013-06-12 14:35:00,
2013-06-12 10:45:00,56.0,51.6,29.38,North,355,9.0,10.0,85,0.00,,,0.02,Wunderground v.1.15,2013-06-12 14:45:00,
2013-06-12 10:50:00,56.1,52.0,29.38,North,5,10.0,10.0,86,0.00,,,0.02,Wunderground v.1.15,2013-06-12 14:50:00,
2013-06-12 10:55:00,56.0,51.6,29.38,ENE,58,11.0,11.0,85,0.00,,,0.02,Wunderground v.1.15,2013-06-12 14:55:00,
2013-06-12 11:00:00,56.4,52.3,29.38,NNW,338,11.0,13.0,86,0.00,,,0.02,Wunderground v.1.15,2013-06-12 15:00:00,
2013-06-12 11:05:00,56.6,52.1,29.39,NE,40,11.0,13.0,85,0.00,,,0.02,Wunderground v.1.15,2013-06-12 15:05:00,
2013-06-12 11:10:00,56.8,52.0,29.39,NW,312,12.0,12.0,84,0.00,,,0.02,Wunderground v.1.15,2013-06-12 15:10:00,
2013-06-12 11:20:00,57.4,52.3,29.39,North,5,12.0,18.0,83,0.00,,,0.02,Wunderground v.1.15,2013-06-12 15:20:00,
2013-06-12 11:30:00,57.9,52.4,29.39,NNW,327,13.0,13.0,82,0.00,,,0.02,Wunderground v.1.15,2013-06-12 15:30:00,
2013-06-12 11:35:00,58.0,52.2,29.40,NW,323,13.0,15.0,81,0.00,,,0.02,Wunderground v.1.15,2013-06-12 15:35:00,
2013-06-12 11:40:00,58.0,52.2,29.40,NNE,18,13.0,13.0,81,0.00,,,0.02,Wunderground v.1.15,2013-06-12 15:40:00,
2013-06-12 11:45:00,58.5,52.7,29.40,NNE,17,12.0,13.0,81,0.00,,,0.02,Wunderground v.1.15,2013-06-12 15:45:00,
2013-06-12 11:55:00,58.6,52.1,29.41,North,5,13.0,13.0,79,0.00,,,0.02,Wunderground v.1.15,2013-06-12 15:55:00,
2013-06-12 12:05:00,58.9,52.7,29.41,ENE,60,11.0,19.0,80,0.00,,,0.02,Wunderground v.1.15,2013-06-12 16:05:00,
2013-06-12 12:15:00,58.4,52.3,29.42,North,360,12.0,12.0,80,0.00,,,0.02,Wunderground v.1.15,2013-06-12 16:15:00,
2013-06-12 12:20:00,58.1,52.0,29.42,NE,56,11.0,11.0,80,0.00,,,0.02,Wunderground v.1.15,2013-06-12 16:20:00,
2013-06-12 12:25:00,57.7,52.2,29.42,NW,318,10.0,14.0,82,0.00,,,0.02,Wunderground v.1.15,2013-06-12 16:25:00,
2013-06-12 12:30:00,57.6,51.8,29.42,ENE,61,10.0,10.0,81,0.00,,,0.02,Wunderground v.1.15,2013-06-12 16:30:00,
2013-06-12 12:40:00,58.0,52.5,29.42,NNE,27,9.0,9.0,82,0.00,,,0.02,Wunderground v.1.15,2013-06-12 16:40:00,
2013-06-12 12:45:00,58.0,52.5,29.42,NNE,32,8.0,9.0,82,0.00,,,0.02,Wunderground v.1.15,2013-06-12 16:45:00,
2013-06-12 12:55:00,57.9,52.4,29.43,NNE,21,9.0,12.0,82,0.00,,,0.02,Wunderground v.1.15,2013-06-12 16:55:00,
2013-06-12 13:05:00,58.2,52.4,29.43,North,355,9.0,12.0,81,0.00,,,0.02,Wunderground v.1.15,2013-06-12 17:05:00,
2013-06-12 13:15:00,59.1,53.3,29.42,North,5,8.0,13.0,81,0.00,,,0.02,Wunderground v.1.15,2013-06-12 17:15:00,
2013-06-12 13:20:00,59.6,53.1,29.42,NNE,27,10.0,11.0,79,0.00,,,0.02,Wunderground v.1.15,2013-06-12 17:20:00,
2013-06-12 13:30:00,59.9,52.3,29.42,NNE,14,11.0,16.0,76,0.00,,,0.02,Wunderground v.1.15,2013-06-12 17:30:00,
2013-06-12 13:40:00,60.2,53.3,29.42,NNW,345,11.0,11.0,78,0.00,,,0.02,Wunderground v.1.15,2013-06-12 17:40:00,
2013-06-12 13:50:00,60.0,52.1,29.43,NNW,331,13.0,13.0,75,0.00,,,0.02,Wunderground v.1.15,2013-06-12 17:50:00,
2013-06-12 14:00:00,59.8,51.9,29.43,NNE,33,13.0,13.0,75,0.00,,,0.02,Wunderground v.1.15,2013-06-12 18:00:00,
2013-06-12 14:10:00,60.0,52.4,29.43,NNE,21,10.0,10.0,76,0.00,,,0.02,Wunderground v.1.15,2013-06-12 18:10:00,
2013-06-12 14:15:00,60.3,53.1,29.43,NW,319,9.0,12.0,77,0.00,,,0.02,Wunderground v.1.15,2013-06-12 18:15:00,
2013-06-12 14:25:00,61.1,53.1,29.44,NE,46,10.0,10.0,75,0.00,,,0.02,Wunderground v.1.15,2013-06-12 18:25:00,
2013-06-12 14:30:00,61.0,52.3,29.44,NNE,19,10.0,10.0,73,0.00,,,0.02,Wunderground v.1.15,2013-06-12 18:30:00,
2013-06-12 14:40:00,60.7,52.7,29.44,NE,35,10.0,10.0,75,0.00,,,0.02,Wunderground v.1.15,2013-06-12 18:40:00,
2013-06-12 14:45:00,61.1,53.5,29.44,NNE,30,9.0,10.0,76,0.00,,,0.02,Wunderground v.1.15,2013-06-12 18:45:00,
2013-06-12 14:50:00,61.2,52.5,29.44,NNE,15,9.0,18.0,73,0.00,,,0.02,Wunderground v.1.15,2013-06-12 18:50:00,
2013-06-12 15:00:00,61.5,52.4,29.44,NNE,29,11.0,24.0,72,0.00,,,0.02,Wunderground v.1.15,2013-06-12 19:00:00,
2013-06-12 15:05:00,61.1,51.6,29.44,NNE,32,13.0,24.0,71,0.00,,,0.02,Wunderground v.1.15,2013-06-12 19:05:00,
2013-06-12 15:10:00,61.1,52.0,29.44,North,349,13.0,13.0,72,0.00,,,0.02,Wunderground v.1.15,2013-06-12 19:10:00,
2013-06-12 15:15:00,61.0,51.1,29.44,NW,310,12.0,13.0,70,0.00,,,0.02,Wunderground v.1.15,2013-06-12 19:15:00,
2013-06-12 15:25:00,61.2,52.8,29.45,North,360,9.0,12.0,74,0.00,,,0.02,Wunderground v.1.15,2013-06-12 19:25:00,
2013-06-12 15:35:00,60.8,51.3,29.44,NNW,331,12.0,13.0,71,0.00,,,0.02,Wunderground v.1.15,2013-06-12 19:35:00,
2013-06-12 15:40:00,60.8,52.5,29.44,NE,34,11.0,14.0,74,0.00,,,0.02,Wunderground v.1.15,2013-06-12 19:40:00,
2013-06-12 15:50:00,61.1,51.6,29.44,NNW,335,10.0,10.0,71,0.00,,,0.02,Wunderground v.1.15,2013-06-12 19:50:00,
2013-06-12 16:00:00,61.8,52.7,29.45,NW,304,10.0,10.0,72,0.00,,,0.02,Wunderground v.1.15,2013-06-12 20:00:00,
2013-06-12 16:05:00,62.0,52.9,29.45,NNE,15,10.0,14.0,72,0.00,,,0.02,Wunderground v.1.15,2013-06-12 20:05:00,
2013-06-12 16:10:00,62.1,52.6,29.45,North,355,10.0,12.0,71,0.00,,,0.02,Wunderground v.1.15,2013-06-12 20:10:00,
2013-06-12 16:15:00,62.0,52.9,29.45,NW,321,9.0,12.0,72,0.00,,,0.02,Wunderground v.1.15,2013-06-12 20:15:00,
2013-06-12 16:20:00,62.1,52.6,29.46,North,5,8.0,8.0,71,0.00,,,0.02,Wunderground v.1.15,2013-06-12 20:20:00,
2013-06-12 16:30:00,62.1,52.2,29.46,NNE,21,10.0,10.0,70,0.00,,,0.02,Wunderground v.1.15,2013-06-12 20:30:00,
2013-06-12 16:35:00,62.3,52.0,29.45,NNE,19,9.0,14.0,69,0.00,,,0.02,Wunderground v.1.15,2013-06-12 20:35:00,
2013-06-12 16:40:00,62.5,52.2,29.45,NE,38,9.0,14.0,69,0.00,,,0.02,Wunderground v.1.15,2013-06-12 20:40:00,
2013-06-12 16:45:00,62.7,51.2,29.45,NE,38,11.0,14.0,66,0.00,,,0.02,Wunderground v.1.15,2013-06-12 20:45:00,
2013-06-12 16:50:00,62.5,51.8,29.45,NNE,22,11.0,13.0,68,0.00,,,0.02,Wunderground v.1.15,2013-06-12 20:50:00,
2013-06-12 16:55:00,62.8,52.1,29.46,NNE,15,9.0,13.0,68,0.00,,,0.02,Wunderground v.1.15,2013-06-12 20:55:00,
2013-06-12 17:00:00,63.5,52.3,29.46,NNE,25,8.0,8.0,67,0.00,,,0.02,Wunderground v.1.15,2013-06-12 21:00:00,
2013-06-12 17:05:00,63.3,50.9,29.46,North,5,9.0,9.0,64,0.00,,,0.02,Wunderground v.1.15,2013-06-12 21:05:00,
2013-06-12 17:15:00,63.8,52.6,29.46,NNE,15,7.0,8.0,67,0.00,,,0.02,Wunderground v.1.15,2013-06-12 21:15:00,
2013-06-12 17:20:00,62.9,52.2,29.46,North,9,7.0,7.0,68,0.00,,,0.02,Wunderground v.1.15,2013-06-12 21:20:00,
2013-06-12 17:25:00,62.4,51.3,29.46,NNE,18,6.0,13.0,67,0.00,,,0.02,Wunderground v.1.15,2013-06-12 21:25:00,
2013-06-12 17:30:00,61.8,50.7,29.46,NNE,19,7.0,9.0,67,0.00,,,0.02,Wunderground v.1.15,2013-06-12 21:30:00,
2013-06-12 17:35:00,61.8,51.1,29.46,NE,34,8.0,9.0,68,0.00,,,0.02,Wunderground v.1.15,2013-06-12 21:35:00,
2013-06-12 17:40:00,62.0,51.7,29.46,NNE,21,6.0,6.0,69,0.00,,,0.02,Wunderground v.1.15,2013-06-12 21:40:00,
2013-06-12 17:50:00,62.3,51.6,29.46,NNE,30,4.0,4.0,68,0.00,,,0.02,Wunderground v.1.15,2013-06-12 21:50:00,
2013-06-12 17:55:00,61.9,51.2,29.46,NE,46,5.0,6.0,68,0.00,,,0.02,Wunderground v.1.15,2013-06-12 21:55:00,
2013-06-12 18:00:00,61.6,50.9,29.45,North,5,6.0,6.0,68,0.00,,,0.02,Wunderground v.1.15,2013-06-12 22:00:00,
2013-06-12 18:05:00,61.1,50.5,29.45,North,5,7.0,7.0,68,0.00,,,0.02,Wunderground v.1.15,2013-06-12 22:05:00,
2013-06-12 18:15:00,61.5,50.8,29.46,NNE,24,7.0,15.0,68,0.00,,,0.02,Wunderground v.1.15,2013-06-12 22:15:00,
2013-06-12 18:20:00,61.6,50.1,29.46,NNE,28,8.0,10.0,66,0.00,,,0.02,Wunderground v.1.15,2013-06-12 22:20:00,
2013-06-12 18:25:00,61.3,50.2,29.46,NW,319,9.0,10.0,67,0.00,,,0.02,Wunderground v.1.15,2013-06-12 22:25:00,
2013-06-12 18:30:00,61.1,50.5,29.47,NW,323,7.0,7.0,68,0.00,,,0.02,Wunderground v.1.15,2013-06-12 22:30:00,
2013-06-12 18:35:00,61.0,50.8,29.47,NNE,32,5.0,7.0,69,0.00,,,0.02,Wunderground v.1.15,2013-06-12 22:35:00,
2013-06-12 18:45:00,61.6,52.1,29.47,NE,34,3.0,4.0,71,0.00,,,0.02,Wunderground v.1.15,2013-06-12 22:45:00,
2013-06-12 18:50:00,62.3,51.6,29.47,North,5,3.0,3.0,68,0.00,,,0.02,Wunderground v.1.15,2013-06-12 22:50:00,
2013-06-12 19:00:00,63.1,52.0,29.48,NNE,32,5.0,5.0,67,0.00,,,0.02,Wunderground v.1.15,2013-06-12 23:00:00,
2013-06-12 19:05:00,62.6,50.7,29.48,NNE,21,5.0,5.0,65,0.00,,,0.02,Wunderground v.1.15,2013-06-12 23:05:00,
2013-06-12 19:10:00,62.0,50.9,29.48,NNE,30,3.0,3.0,67,0.00,,,0.02,Wunderground v.1.15,2013-06-12 23:10:00,
2013-06-12 19:20:00,61.2,51.3,29.49,NNW,334,2.0,2.0,70,0.00,,,0.02,Wunderground v.1.15,2013-06-12 23:20:00,
2013-06-12 19:30:00,60.8,51.3,29.49,NW,322,1.0,1.0,71,0.00,,,0.02,Wunderground v.1.15,2013-06-12 23:30:00,
2013-06-12 19:40:00,60.9,51.4,29.49,NW,320,2.0,4.0,71,0.00,,,0.02,Wunderground v.1.15,2013-06-12 23:40:00,
2013-06-12 19:45:00,60.9,51.4,29.49,NW,318,3.0,6.0,71,0.00,,,0.02,Wunderground v.1.15,2013-06-12 23:45:00,
2013-06-12 19:50:00,60.8,51.7,29.49,NNW,335,3.0,3.0,72,0.00,,,0.02,Wunderground v.1.15,2013-06-12 23:50:00,
2013-06-12 20:00:00,60.5,51.8,29.49,North,355,2.0,2.0,73,0.00,,,0.02,Wunderground v.1.15,2013-06-13 00:00:00,
2013-06-12 20:10:00,60.0,51.7,29.49,WNW,296,1.0,1.0,74,0.00,,,0.02,Wunderground v.1.15,2013-06-13 00:10:00,
2013-06-12 20:15:00,59.7,51.4,29.49,WNW,300,1.0,2.0,74,0.00,,,0.02,Wunderground v.1.15,2013-06-13 00:15:00,
2013-06-12 20:20:00,59.3,51.0,29.49,NW,325,1.0,3.0,74,0.00,,,0.02,Wunderground v.1.15,2013-06-13 00:20:00,
2013-06-12 20:30:00,58.8,51.2,29.49,North,5,1.0,1.0,76,0.00,,,0.02,Wunderground v.1.15,2013-06-13 00:30:00,
2013-06-12 20:40:00,57.6,50.8,29.49,NW,312,1.0,1.0,78,0.00,,,0.02,Wunderground v.1.15,2013-06-13 00:40:00,
2013-06-12 20:45:00,57.2,50.4,29.50,North,360,1.0,1.0,78,0.00,,,0.02,Wunderground v.1.15,2013-06-13 00:45:00,
2013-06-12 20:50:00,57.3,50.5,29.50,NW,313,2.0,3.0,78,0.00,,,0.02,Wunderground v.1.15,2013-06-13 00:50:00,
2013-06-12 20:55:00,57.7,50.5,29.50,NNW,348,2.0,3.0,77,0.00,,,0.02,Wunderground v.1.15,2013-06-13 00:55:00,
2013-06-12 21:00:00,57.9,50.7,29.50,NNW,348,2.0,2.0,77,0.00,,,0.02,Wunderground v.1.15,2013-06-13 01:00:00,
2013-06-12 21:05:00,57.9,51.1,29.50,NW,314,1.0,2.0,78,0.00,,,0.02,Wunderground v.1.15,2013-06-13 01:05:00,
2013-06-12 21:10:00,57.8,51.0,29.50,NW,308,1.0,1.0,78,0.00,,,0.02,Wunderground v.1.15,2013-06-13 01:10:00,
2013-06-12 21:15:00,57.9,50.7,29.50,NW,323,1.0,3.0,77,0.00,,,0.02,Wunderground v.1.15,2013-06-13 01:15:00,
2013-06-12 21:20:00,58.0,50.8,29.51,WNW,294,1.0,2.0,77,0.00,,,0.02,Wunderground v.1.15,2013-06-13 01:20:00,
2013-06-12 21:30:00,58.3,50.4,29.51,NW,320,1.0,5.0,75,0.00,,,0.02,Wunderground v.1.15,2013-06-13 01:30:00,
2013-06-12 21:40:00,57.8,50.6,29.51,NE,36,2.0,3.0,77,0.00,,,0.02,Wunderground v.1.15,2013-06-13 01:40:00,
2013-06-12 21:45:00,57.7,50.2,29.51,WNW,294,2.0,3.0,76,0.00,,,0.02,Wunderground v.1.15,2013-06-13 01:45:00,
2013-06-12 21:50:00,57.9,50.4,29.52,NW,304,1.0,1.0,76,0.00,,,0.02,Wunderground v.1.15,2013-06-13 01:50:00,
2013-06-12 22:00:00,58.1,50.6,29.52,West,281,1.0,3.0,76,0.00,,,0.02,Wunderground v.1.15,2013-06-13 02:00:00,
2013-06-12 22:05:00,58.5,51.3,29.52,WNW,296,3.0,4.0,77,0.00,,,0.02,Wunderground v.1.15,2013-06-13 02:05:00,
2013-06-12 22:10:00,58.6,51.4,29.52,West,265,3.0,3.0,77,0.00,,,0.02,Wunderground v.1.15,2013-06-13 02:10:00,
2013-06-12 22:15:00,58.7,51.5,29.52,WNW,302,2.0,3.0,77,0.00,,,0.02,Wunderground v.1.15,2013-06-13 02:15:00,
2013-06-12 22:25:00,58.7,51.9,29.52,NNE,22,1.0,2.0,78,0.00,,,0.02,Wunderground v.1.15,2013-06-13 02:25:00,
2013-06-12 22:30:00,58.4,51.9,29.52,NE,36,1.0,2.0,79,0.00,,,0.02,Wunderground v.1.15,2013-06-13 02:30:00,
2013-06-12 22:35:00,57.7,51.9,29.52,ENE,62,2.0,3.0,81,0.00,,,0.02,Wunderground v.1.15,2013-06-13 02:35:00,
2013-06-12 22:45:00,56.8,51.4,29.52,NNE,17,5.0,5.0,82,0.00,,,0.02,Wunderground v.1.15,2013-06-13 02:45:00,
2013-06-12 22:50:00,56.7,51.3,29.52,NE,40,5.0,5.0,82,0.00,,,0.02,Wunderground v.1.15,2013-06-13 02:50:00,
2013-06-12 22:55:00,56.6,51.2,29.52,NNE,21,3.0,5.0,82,0.00,,,0.02,Wunderground v.1.15,2013-06-13 02:55:00,
2013-06-12 23:00:00,56.3,50.9,29.52,NNE,22,3.0,3.0,82,0.00,,,0.02,Wunderground v.1.15,2013-06-13 03:00:00,
2013-06-12 23:05:00,56.1,51.0,29.52,NNE,19,2.0,3.0,83,0.00,,,0.02,Wunderground v.1.15,2013-06-13 03:05:00,
2013-06-12 23:10:00,56.0,50.9,29.52,North,360,2.0,2.0,83,0.00,,,0.02,Wunderground v.1.15,2013-06-13 03:10:00,
2013-06-12 23:15:00,55.9,50.8,29.51,North,360,1.0,2.0,83,0.00,,,0.02,Wunderground v.1.15,2013-06-13 03:15:00,
2013-06-12 23:25:00,55.7,50.9,29.51,North,360,0.0,1.0,84,0.00,,,0.02,Wunderground v.1.15,2013-06-13 03:25:00,
2013-06-12 23:30:00,55.5,50.7,29.51,North,360,0.0,0.0,84,0.00,,,0.02,Wunderground v.1.15,2013-06-13 03:30:00,
2013-06-12 23:40:00,54.2,50.4,29.51,NW,308,1.0,1.0,87,0.00,,,0.02,Wunderground v.1.15,2013-06-13 03:40:00,
2013-06-12 23:50:00,53.5,50.0,29.51,NW,308,1.0,1.0,88,0.00,,,0.02,Wunderground v.1.15,2013-06-13 03:50:00,
2013-06-12 23:55:00,53.1,49.9,29.51,NW,308,1.0,1.0,89,0.00,,,0.02,Wunderground v.1.15,2013-06-13 03:55:00,